KFLP

Details ICAO KFLP
Name MARION CO RGNL
Region United States
Timezone America/Chicago (UTC-5.0)
Plans Departing 0
Arriving 5
Stats Elevation 719 ft / 219 m (AMSL)
Location 36.290895° -92.590253°
Runways 1
Magnetic Variation 0.358° E
Sunrise 2018-05-20 11:01:41 UTC / 2018-05-20 06:01:41 Local
Sunset 2018-05-21 01:14:58 UTC / 2018-05-20 20:14:58 Local
Advertisement - Login to hide

Runways

ID Width Length Bearing (true) Bearing (mag) Surface Threshold Offset Overrun Length
04 75 ft / 23 m 4,998 ft / 1,524 m 51.08° 50.72° Asphalt 900 ft / 274 m 200 ft / 61 m
22 75 ft / 23 m 4,998 ft / 1,524 m 231.09° 230.73° Asphalt 0 ft / 0 m 350 ft / 107 m

Map

Weather


0- 5 10 15 20 25 30 35+ Temperature / ° C

Clouds and Precipitation
Forecast for 2018-05-20 12:00 UTC. Updated 4 hours ago

Ground ~20,000 ft ~40,000 ft Winds

METAR

KFLP 201356Z AUTO 33005KT 10SM CLR 22/20 A3008 RMK AO2 SLP179 T02220200 PNO $

TAF

Not found

Frequencies

Recorded 132.07 MHz AWOS 3
Unicom 123.00 MHz CTAF/UNICOM
Warning: Do not use this data for real-world aviation or navigation. No guarantee of current accuracy is given.